Weather History for Fort Indiantown Gap, PA

Change the Weather History Date:

Saturday, May 18, 2013

  Actual Average Record
Temperature  
Mean Temperature 62 °F -  
Max Temperature 68 °F 69 °F 86 °F (1998)
Min Temperature 56 °F 54 °F 41 °F (2014)
Degree Days  
Heating Degree Days 4    
Growing Degree Days 12 (Base 50)    
Moisture  
Dew Point 53 °F    
Average Humidity 76    
Maximum Humidity 100    
Minimum Humidity 49    
Precipitation  
Precipitation 0.00 in - - ()
Sea Level Pressure  
Sea Level Pressure 30.24 in    
Wind  
Wind Speed 4 mph (ESE)    
Max Wind Speed 9 mph    
Max Gust Speed 16 mph    
Visibility 9 miles    
Events Rain    
Averages and records for this station are not official NWS values.
T = Trace of Precipitation, MM = Missing Value Source: NWS Daily Summary

Daily Weather History Graph

Daily Weather History Graph

Search for Another Location

Airport:

Trip Planner

Search our weather history database for the weather conditions in past years. The results will help you decide how hot, cold, wet, or windy it might be!

Date:

Astronomy

May. 18, 2013 Rise Set
Actual Time 5:47 AM EDT 8:18 PM EDT
Civil Twilight 5:15 AM EDT 8:50 PM EDT
Nautical Twilight 4:37 AM EDT 9:29 PM EDT
Astronomical Twilight 3:53 AM EDT 10:12 PM EDT
Moon 1:18 PM EDT (5/18) 1:39 AM EDT (5/18)
Length of Visible Light 15h 34m
Length of Day
14h 31m
First Quarter, 55% of the Moon is Illuminated
May 18
First Quarter
May 25
Full
May 31
Last Quarter
Jun 8
New
Jun 16
First Quarter

Hourly Weather History & Observations

Time (EDT) Temp. Dew Point Humidity Pressure Visibility Wind Dir Wind Speed Gust Speed Precip Events Conditions
12:58 AM 57.9 °F 47.5 °F 68% 30.20 in 10.0 mi NNE 1.2 mph - N/A   Overcast
1:58 AM 59.5 °F 43.3 °F 55% 30.21 in 10.0 mi NE 3.5 mph - N/A   Mostly Cloudy
2:58 AM 60.6 °F 41.2 °F 49% 30.21 in 10.0 mi Calm Calm - N/A   Overcast
3:58 AM 57.6 °F 44.1 °F 61% 30.22 in 10.0 mi NNE 3.5 mph - N/A   Mostly Cloudy
4:58 AM 57.9 °F 43.3 °F 58% 30.22 in 10.0 mi NE 3.5 mph - N/A   Mostly Cloudy
5:58 AM 56.5 °F 44.8 °F 65% 30.23 in 10.0 mi Variable 1.2 mph - N/A   Mostly Cloudy
6:58 AM 57.7 °F 44.6 °F 62% 30.25 in 10.0 mi Variable 2.3 mph - N/A   Mostly Cloudy
7:58 AM 59.2 °F 46.9 °F 64% 30.25 in 10.0 mi NE 2.3 mph - N/A   Mostly Cloudy
8:58 AM 61.3 °F 48.9 °F 64% 30.25 in 10.0 mi ENE 4.6 mph - N/A   Scattered Clouds
9:58 AM 64.4 °F 49.1 °F 58% 30.26 in 10.0 mi ESE 6.9 mph - N/A   Mostly Cloudy
10:58 AM 65.5 °F 49.8 °F 57% 30.25 in 10.0 mi SE 6.9 mph - N/A   Overcast
11:58 AM 66.7 °F 50.0 °F 55% 30.25 in 10.0 mi ESE 5.8 mph - N/A   Overcast
12:58 PM 67.6 °F 50.0 °F 53% 30.24 in 10.0 mi SE 5.8 mph - N/A   Overcast
1:58 PM 67.5 °F 49.1 °F 52% 30.24 in 10.0 mi SSE 8.1 mph - N/A   Overcast
2:58 PM 67.1 °F 50.2 °F 55% 30.23 in 10.0 mi SSE 6.9 mph - N/A   Overcast
3:58 PM 67.5 °F 51.3 °F 56% 30.22 in 10.0 mi ESE 5.8 mph - N/A   Overcast
4:58 PM 66.7 °F 52.5 °F 60% 30.23 in 10.0 mi ESE 6.9 mph - N/A   Overcast
5:44 PM 64.4 °F 55.4 °F 73% 30.22 in 10.0 mi SSE 5.8 mph - N/A   Overcast
5:48 PM 64.4 °F 55.4 °F 73% 30.22 in 10.0 mi SE 6.9 mph - N/A   Overcast
5:54 PM 64.4 °F 55.4 °F 73% 30.22 in 10.0 mi SE 5.8 mph - N/A   Overcast
5:58 PM 63.9 °F 55.0 °F 73% 30.23 in 10.0 mi SE 3.5 mph - N/A   Overcast
6:12 PM 64.4 °F 55.4 °F 73% 30.22 in 10.0 mi SE 9.2 mph - N/A   Overcast
6:50 PM 60.8 °F 55.4 °F 82% 30.23 in 10.0 mi ESE 9.2 mph 16.1 mph N/A   Overcast
6:58 PM 61.2 °F 56.1 °F 83% 30.25 in 10.0 mi SE 5.8 mph - N/A   Overcast
7:58 PM 60.4 °F 55.8 °F 85% 30.26 in 10.0 mi SE 4.6 mph - N/A   Overcast
8:55 PM 59.0 °F 57.2 °F 94% 30.25 in 9.0 mi SE 5.8 mph - N/A Rain Light Rain
8:58 PM 59.0 °F 57.2 °F 94% 30.26 in 9.0 mi ESE 2.3 mph - N/A Rain Light Rain
9:03 PM 59.0 °F 57.2 °F 94% 30.25 in 9.0 mi SE 5.8 mph - N/A   Overcast
9:58 PM 57.9 °F 57.6 °F 99% 30.27 in 10.0 mi Variable 2.3 mph - 0.00 in   Overcast
10:20 PM 59.0 °F 57.2 °F 94% 30.26 in 10.0 mi Calm Calm - N/A   Overcast
10:58 PM 58.1 °F 57.7 °F 99% 30.27 in 10.0 mi East 2.3 mph - N/A   Overcast
11:01 PM 59.0 °F 57.2 °F 94% 30.25 in 10.0 mi Variable 3.5 mph - N/A   Overcast
11:09 PM 57.2 °F 57.2 °F 100% 30.25 in 10.0 mi East 5.8 mph - N/A   Overcast
11:37 PM 57.2 °F 57.2 °F 100% 30.26 in 3.0 mi ENE 2.3 mph - N/A   Overcast
11:41 PM 57.2 °F 57.2 °F 100% 30.26 in 2.5 mi Calm Calm - N/A   Overcast
11:46 PM 57.2 °F 57.2 °F 100% 30.25 in 2.0 mi Variable 2.3 mph - N/A   Light Drizzle
11:52 PM 57.2 °F 57.2 °F 100% 30.25 in 2.0 mi Variable 1.2 mph - N/A   Light Drizzle
11:56 PM 57.2 °F 57.2 °F 100% 30.26 in 2.0 mi ENE 2.3 mph - N/A   Light Drizzle
11:58 PM 57.2 °F 57.2 °F 100% 30.27 in 2.0 mi Variable 2.3 mph - 0.00 in   Light Drizzle